Theta_e
324 315 313 312 312 316 312 307 294 294 298 291 290 293 292 300 304 308 310 315 311 318 319 321 322 320 315 315 319 320 322 316 318 306 307 320 333 336 336 337 338 341 342 343 345 345 346 348 350 349 349 349 350 350 350 350 350 351 351 350 350 351 352 351 351 351 350 349 348 348 347 347 347 347 347 346 344 344 346 344 344 344 344 344 345 344 344 344 342 341 340 340 341 343 344 344 344
317 315 312 311 310 307 300 302 294 291 291 288 292 295 296 302 312 311 311 314 315 317 321 323 324 325 324 323 323 323 320 324 325 322 326 330 334 334 337 338 339 338 339 341 344 343 344 346 349 349 350 349 349 350 350 350 350 350 349 348 346 346 347 350 350 350 349 349 348 347 347 347 347 347 346 346 346 346 345 345 344 345 348 347 347 346 346 344 343 342 341 342 343 343 344 344 344
321 314 309 311 306 305 303 301 294 288 289 285 290 292 300 307 309 313 316 317 320 322 323 323 324 323 321 323 317 317 313 328 328 328 326 332 328 332 337 341 340 337 340 340 344 344 344 346 348 348 349 349 349 350 350 350 349 346 345 345 343 341 345 348 349 348 350 349 348 347 346 346 346 346 346 346 345 346 349 348 347 347 347 347 346 346 346 345 345 345 343 342 342 343 343 342 343
318 314 309 306 302 302 298 296 291 291 289 288 288 295 299 309 311 315 318 321 321 323 323 321 318 324 320 315 318 323 321 322 328 328 324 326 327 335 339 340 340 339 340 343 344 344 344 346 348 348 348 349 349 349 348 348 347 347 344 344 343 341 346 347 348 349 350 349 348 346 346 345 345 345 345 345 345 348 348 347 347 348 347 347 347 346 346 346 345 344 343 342 342 343 342 342 342
312 317 308 306 302 298 299 295 293 290 288 288 288 301 308 311 312 314 317 320 321 322 322 321 317 324 325 322 324 317 319 326 328 332 329 331 336 336 337 338 338 339 342 344 344 344 344 347 348 348 348 348 348 348 349 349 348 348 346 345 344 343 346 347 349 350 350 349 349 348 347 346 345 345 345 345 345 346 347 347 347 347 347 347 346 346 346 346 345 345 343 343 344 344 342 341 341
308 307 311 306 300 302 298 292 291 290 292 294 297 305 309 312 313 315 318 320 321 322 322 320 316 318 318 321 325 321 327 319 327 330 332 331 335 339 338 340 338 338 341 342 343 343 343 346 347 348 348 348 348 348 348 349 347 345 346 346 345 346 348 348 349 350 350 349 349 348 347 347 346 345 345 345 345 345 346 347 346 346 346 346 345 345 345 345 344 344 344 343 343 344 343 343 341
307 303 304 304 303 302 292 289 289 290 301 304 303 307 312 314 316 317 318 319 322 322 323 318 321 320 315 322 326 329 332 332 329 330 335 334 336 337 339 338 338 339 341 342 342 343 344 346 346 347 347 348 347 348 348 348 347 347 345 346 346 347 348 349 349 350 349 349 348 347 347 347 347 347 346 346 346 345 346 346 345 345 345 345 344 344 345 344 345 344 343 344 343 343 343 343 342
310 303 300 295 294 296 291 291 291 291 301 308 311 310 313 316 318 317 316 317 316 318 321 322 323 320 317 327 316 328 332 333 332 335 335 336 336 338 339 339 338 338 340 342 342 343 346 346 347 347 347 347 347 348 348 348 348 348 348 348 348 347 346 348 349 349 348 348 347 347 347 347 347 346 346 346 346 345 345 345 345 346 346 346 346 345 345 345 345 345 345 343 343 343 343 343 343
306 303 304 297 293 293 289 290 291 302 307 310 311 316 318 314 315 315 314 318 320 321 320 322 321 314 316 319 319 327 328 335 337 337 334 335 337 339 340 338 338 338 340 340 340 342 344 346 346 346 346 347 347 346 348 348 348 347 347 348 347 347 347 348 349 349 349 348 347 347 346 347 346 346 346 346 345 345 345 345 346 346 346 345 345 346 346 346 346 346 345 345 345 344 343 344 343
303 303 295 294 291 291 291 289 301 304 307 310 310 311 313 315 315 317 317 317 318 320 320 323 321 315 319 315 319 325 326 334 336 335 336 337 338 339 339 340 340 338 338 339 340 341 343 346 346 346 346 346 346 344 346 348 348 348 347 346 345 345 346 348 348 349 349 348 347 347 346 346 346 346 345 345 345 344 344 346 346 346 345 345 345 346 346 346 346 347 346 346 345 345 345 344 344
298 300 298 297 291 288 288 295 303 307 308 311 312 315 314 315 316 316 318 318 321 319 320 323 318 317 319 318 320 331 334 334 333 331 335 337 338 338 339 340 341 340 338 339 339 340 341 343 346 345 345 346 346 346 346 347 347 347 347 346 345 345 346 347 348 348 348 348 348 347 346 346 346 346 345 345 345 344 344 344 345 345 345 344 344 345 346 346 346 347 347 346 346 346 345 345 345
296 296 297 289 289 289 288 300 305 308 311 311 309 315 316 317 317 314 316 315 319 319 319 324 317 322 317 317 318 326 331 331 331 334 336 338 338 339 339 339 340 339 340 339 340 340 341 342 343 344 345 345 345 345 346 346 346 347 346 345 345 345 344 346 347 347 347 348 348 348 347 345 346 346 346 346 345 345 345 345 345 345 344 344 344 344 345 345 345 346 347 347 346 346 345 345 345
298 295 296 291 287 288 291 305 305 308 307 308 310 315 317 318 315 315 315 315 316 316 317 323 324 323 314 317 322 325 327 329 332 335 336 337 337 338 339 339 339 339 339 339 338 340 341 342 342 342 343 344 345 345 345 346 347 347 346 344 344 344 344 344 346 347 347 348 347 347 347 347 345 344 345 345 345 345 345 344 344 344 344 344 343 343 344 345 345 345 345 345 345 345 345 345 346
298 297 293 291 291 291 292 303 306 302 304 311 314 318 318 317 318 318 318 315 317 316 322 326 325 323 318 319 319 320 324 330 332 334 336 338 336 337 338 338 338 338 338 337 337 338 339 339 339 339 339 339 340 344 344 345 346 347 346 345 345 345 345 345 346 347 347 347 347 347 347 347 346 346 344 344 344 344 344 343 343 343 343 343 343 342 342 344 345 345 344 344 344 344 344 344 345
300 297 296 292 290 289 298 299 302 302 302 311 314 316 317 320 319 318 317 315 318 325 326 329 325 320 312 316 314 320 324 329 331 333 336 337 336 336 337 337 337 337 337 337 337 337 338 340 339 339 339 338 337 338 339 344 346 345 345 345 346 345 345 346 347 346 347 347 347 347 347 347 346 346 345 344 343 342 342 342 341 342 342 343 342 341 342 342 344 345 345 344 343 343 342 343 343
300 298 295 294 288 290 300 302 304 303 303 312 316 318 317 319 323 320 321 322 321 327 327 320 329 319 321 318 318 323 327 330 332 334 335 334 334 335 336 336 336 337 337 337 337 337 337 337 338 339 339 337 337 337 340 342 345 346 345 345 345 346 346 346 346 346 346 346 345 346 346 347 347 346 346 344 344 343 342 341 342 342 342 342 342 342 341 341 341 342 343 343 343 343 343 344 344
302 300 293 287 291 294 294 300 302 298 306 312 316 315 313 315 323 323 327 326 321 322 324 325 322 324 318 319 323 327 330 332 334 333 332 331 332 331 332 333 335 335 336 336 335 335 336 336 337 338 338 337 338 339 340 341 344 345 345 346 346 346 345 346 346 345 344 344 344 344 344 343 340 338 337 340 345 342 345 344 343 343 343 342 342 342 342 342 341 341 341 342 342 343 343 343 344
300 294 289 289 294 300 304 303 305 310 309 311 314 315 315 313 318 322 325 321 321 323 322 320 320 320 323 324 327 329 330 330 330 329 327 327 327 327 328 330 332 331 333 333 334 334 335 337 338 338 337 336 337 338 339 339 340 341 338 339 341 343 345 344 341 341 344 338 343 340 339 343 339 338 338 346 343 343 345 345 344 344 343 343 343 343 343 342 342 342 341 342 342 343 343 335 337
296 292 289 291 296 303 309 309 311 310 309 312 313 315 315 314 316 317 317 316 318 318 319 317 316 318 321 324 326 327 328 328 328 327 326 326 326 326 325 327 329 330 330 330 330 332 332 332 334 335 335 335 336 336 338 338 336 335 337 338 341 344 343 341 337 338 333 336 337 338 340 339 340 340 339 343 343 347 345 345 346 346 345 345 345 344 344 344 343 343 342 342 343 344 338 333 334
295 294 289 296 306 309 312 312 311 313 313 311 310 311 312 313 316 321 316 316 317 315 313 314 314 315 318 321 324 325 326 326 327 325 325 324 326 325 324 325 325 325 326 327 328 332 331 331 332 333 335 334 334 334 335 334 335 334 336 336 336 337 336 337 335 337 336 334 335 336 338 339 338 336 345 345 346 344 342 348 347 347 347 346 346 345 345 345 345 345 344 343 344 341 335 332 333
296 290 293 303 310 308 311 313 312 313 314 310 310 311 314 317 317 318 317 315 315 316 318 316 314 316 318 320 322 325 324 324 325 325 324 323 324 324 324 325 325 325 327 330 331 331 330 331 331 331 333 334 335 336 337 335 335 336 336 337 336 337 335 334 335 336 337 336 337 337 335 338 336 334 334 335 335 338 338 339 341 339 341 339 346 338 337 339 338 335 335 338 335 335 334 332 329
302 298 305 307 309 308 312 313 313 313 313 311 309 308 312 320 319 317 317 313 312 314 317 320 318 319 319 319 320 323 324 323 323 324 323 322 322 322 323 325 327 328 331 327 327 328 331 332 332 334 335 335 334 335 336 338 340 336 335 335 338 338 338 336 334 333 334 336 337 336 337 332 333 334 333 333 335 335 337 337 340 338 338 342 343 340 338 338 337 337 337 337 335 334 333 331 328
301 305 307 308 310 309 312 312 312 311 311 311 311 315 319 316 314 317 316 314 314 318 318 319 320 321 321 322 322 321 322 322 322 323 324 323 323 323 324 325 325 325 326 326 328 329 331 331 332 331 330 332 333 334 337 339 336 337 335 336 336 336 337 335 334 335 334 336 337 337 334 333 332 333 333 332 333 335 336 337 338 339 339 339 342 340 338 338 337 337 336 337 336 334 333 330 331
307 302 307 308 310 309 310 310 310 311 311 310 313 317 316 316 310 317 314 316 316 318 319 319 320 323 323 321 322 321 321 321 322 323 323 323 324 325 326 325 327 327 327 327 328 328 331 330 331 331 329 331 331 334 337 336 336 337 338 342 337 343 339 333 334 335 336 335 337 337 338 333 331 330 331 330 331 332 336 338 338 338 339 339 339 340 338 337 337 336 337 336 336 333 332 335 336
305 304 308 308 310 310 310 310 310 310 310 312 317 315 315 317 315 315 312 316 317 318 320 320 321 321 321 320 320 320 320 321 322 323 325 327 325 328 327 327 327 326 324 325 326 327 328 329 330 330 329 331 331 333 335 335 336 336 337 336 336 344 333 335 335 336 336 336 338 337 340 333 332 330 329 330 330 331 332 335 335 338 339 339 338 339 339 337 335 335 335 335 335 334 334 335 336
307 306 308 309 309 310 310 310 310 311 313 316 315 314 316 317 318 313 314 317 319 319 319 320 319 319 319 320 321 322 321 321 322 324 325 327 326 327 327 326 326 325 325 324 326 327 327 328 328 328 329 330 331 332 332 332 333 333 334 335 336 342 334 336 337 334 335 336 335 336 336 334 331 330 330 330 330 330 332 333 335 336 337 338 338 338 337 335 335 333 333 332 332 332 332 333 336
309 308 309 309 309 310 311 308 308 310 311 314 313 313 314 316 316 307 317 318 321 319 318 318 318 317 318 318 320 322 322 321 322 324 325 325 324 326 326 325 325 325 326 325 326 327 329 327 327 328 329 334 331 330 331 331 333 332 335 334 336 338 337 340 338 334 334 334 334 335 334 337 333 332 330 330 331 331 332 333 335 335 334 334 336 337 336 335 334 333 333 332 331 331 332 333 336
310 309 309 308 309 309 308 308 308 309 309 311 311 308 311 313 312 309 315 319 320 316 315 315 316 316 317 318 319 321 321 322 324 324 323 322 321 323 323 324 324 324 324 324 326 326 326 326 327 326 327 328 331 328 329 330 331 331 335 333 335 336 339 336 335 334 337 333 333 334 334 332 335 330 330 331 331 332 332 331 330 333 333 333 334 335 334 335 335 334 334 334 334 335 335 335 333
308 309 303 305 307 306 308 306 309 309 307 310 309 307 306 309 307 313 317 319 318 316 314 314 315 316 317 318 319 319 321 321 322 322 322 325 324 325 324 327 326 322 325 326 325 325 324 324 326 326 326 327 327 328 328 329 330 332 331 332 334 338 335 336 334 332 331 334 334 334 333 334 335 331 330 331 334 329 328 327 327 329 329 332 333 334 334 333 332 332 332 334 333 333 333 332 334
306 305 302 299 298 299 305 308 308 307 309 309 306 290 297 306 311 313 317 316 316 314 313 314 314 315 316 318 318 319 320 320 320 322 323 324 326 325 324 325 328 326 325 324 325 325 327 328 329 329 328 326 329 326 329 326 328 328 332 331 336 331 324 332 336 333 336 333 331 330 330 333 330 329 328 327 327 327 327 327 327 327 330 333 335 334 332 332 331 330 331 331 336 335 330 331 332
296 301 299 291 289 294 303 306 307 304 310 307 305 296 301 308 310 313 316 317 314 312 313 314 314 313 314 315 317 318 318 319 321 322 322 324 326 325 326 326 326 328 328 326 325 325 328 326 329 326 330 324 325 324 324 325 327 324 322 324 324 326 325 324 322 326 327 329 329 329 330 332 331 330 328 327 326 326 326 326 326 327 331 332 331 333 332 332 332 331 332 332 332 331 330 334 332
298 292 289 293 289 292 303 310 305 302 305 308 303 296 302 308 309 312 315 315 313 311 313 313 313 314 314 314 315 316 317 319 320 322 323 325 326 326 326 327 327 327 326 325 326 324 323 323 328 324 326 324 323 328 325 324 323 324 322 332 323 325 325 326 325 326 327 327 328 327 328 332 329 329 329 327 325 325 324 325 326 328 330 330 330 330 330 330 329 331 332 332 329 329 330 329 330
294 290 291 292 293 294 298 303 306 308 305 306 302 292 301 305 310 312 314 313 313 311 311 312 313 314 315 315 316 317 318 319 320 322 324 325 325 326 326 327 328 327 326 324 323 322 323 322 330 323 323 323 324 324 323 321 319 320 324 324 325 324 324 325 326 325 325 326 325 325 326 330 327 326 326 327 326 324 324 325 326 328 329 328 328 328 328 330 328 329 327 331 328 326 326 327 327
288 293 290 293 291 293 291 299 305 305 304 300 303 298 301 305 310 311 312 313 311 309 310 311 312 314 315 317 317 318 319 320 320 321 323 324 325 325 325 330 329 329 328 325 323 323 323 324 324 323 321 323 321 320 323 321 322 323 322 322 332 323 323 324 325 325 324 324 325 325 324 326 330 326 326 325 325 327 325 325 325 327 328 327 328 327 326 327 327 326 326 325 328 326 325 325 326
287 290 290 290 293 293 294 294 300 304 302 300 299 298 300 304 309 310 311 313 311 309 311 311 312 313 314 316 317 318 319 319 320 321 323 323 324 325 325 326 327 329 328 326 325 323 323 322 324 327 322 319 319 319 320 322 320 319 319 323 323 323 323 322 323 322 323 324 324 325 327 327 329 327 328 327 326 326 324 325 324 325 326 326 325 325 326 327 327 324 325 326 326 327 326 325 325
294 294 292 291 291 292 293 298 303 304 299 298 297 294 299 304 306 310 311 313 310 310 311 311 312 312 313 315 317 317 318 319 320 321 322 323 323 324 324 325 326 326 325 325 324 322 320 319 319 321 320 319 322 320 319 319 321 321 318 321 322 324 322 325 322 322 322 322 328 326 326 325 326 329 327 326 327 327 324 324 324 325 327 325 326 325 324 324 323 322 323 326 323 324 325 325 324
297 297 294 293 292 294 297 300 303 305 301 298 298 297 302 304 306 309 311 310 309 309 309 310 311 311 313 314 316 317 317 318 320 322 321 322 323 323 324 324 324 324 324 323 322 319 318 317 318 317 318 323 323 320 317 316 317 318 318 317 322 321 322 323 322 321 323 325 326 327 327 327 326 327 329 327 325 328 325 324 325 325 326 328 326 325 325 327 326 324 324 324 322 320 321 324 325
295 294 293 292 292 290 297 299 303 305 300 296 297 297 297 304 307 309 311 309 307 308 309 310 311 312 313 314 315 316 317 319 320 319 320 321 321 323 323 323 325 321 322 323 321 319 319 318 316 315 320 320 320 318 319 318 317 317 317 316 318 322 322 320 319 320 324 327 326 326 326 325 326 326 330 328 328 326 326 325 325 324 325 326 325 325 325 329 323 323 322 319 321 321 320 323 325
295 291 291 291 292 295 297 301 302 303 301 294 296 296 296 299 306 309 310 309 309 310 310 311 312 312 313 314 314 316 316 316 318 319 320 321 322 323 322 323 322 322 322 322 322 320 320 319 317 317 318 317 319 322 317 319 320 322 318 319 318 319 319 321 319 326 328 324 323 325 326 325 326 326 326 330 328 327 326 325 325 324 325 327 323 323 322 323 322 322 322 320 318 320 321 324 324
291 290 288 288 293 292 289 296 300 301 298 292 295 295 294 298 302 308 311 311 310 311 311 312 313 312 313 313 314 315 315 315 316 317 318 320 321 322 322 322 322 321 322 321 322 321 320 320 316 317 319 317 316 322 325 319 322 323 323 321 321 320 321 326 323 323 323 323 322 324 325 325 326 325 326 327 326 325 325 324 324 324 324 325 322 321 322 322 322 322 322 323 319 317 319 319 326
293 293 290 290 293 294 292 293 298 299 299 297 295 291 289 294 297 303 308 310 310 311 312 311 313 314 314 314 314 315 316 316 316 317 318 319 319 320 320 321 322 321 321 322 321 319 321 317 317 318 318 316 317 324 319 323 323 319 321 321 321 318 318 317 319 319 321 326 323 322 324 325 325 325 325 326 328 324 323 324 324 324 324 324 324 323 321 321 321 321 320 321 319 317 317 317 320
289 292 293 292 293 294 296 296 294 288 289 295 293 281 285 290 295 302 305 304 307 310 310 310 311 312 311 312 313 314 317 317 317 317 318 319 320 320 319 320 321 321 321 322 322 318 318 318 317 317 318 316 316 319 321 321 322 319 318 318 315 313 312 313 314 315 317 318 320 323 324 325 324 324 324 325 326 327 323 323 322 324 323 324 325 322 321 322 322 321 322 320 320 320 318 316 317
286 290 294 294 294 293 296 294 292 284 283 292 294 285 279 285 292 296 302 304 305 307 308 310 311 310 310 311 312 313 316 315 317 319 319 319 319 319 319 320 321 320 321 322 321 318 318 318 317 318 317 317 319 319 321 324 317 317 317 316 315 312 310 311 312 315 318 320 321 322 323 323 323 323 323 323 324 326 323 323 322 322 323 322 326 322 321 321 322 322 325 321 320 322 319 315 316
288 293 294 295 293 293 293 295 291 287 293 293 295 287 282 283 286 295 301 303 303 304 306 307 309 309 309 310 312 313 315 316 317 318 319 319 319 320 319 320 320 321 321 321 320 318 318 317 316 318 318 321 318 319 319 324 317 317 315 316 317 313 312 313 319 319 319 322 320 321 322 321 323 323 323 323 323 325 325 322 322 322 322 324 325 320 320 320 322 323 324 321 322 323 319 318 316
290 294 296 294 293 292 293 290 289 291 288 285 285 293 283 282 287 296 300 299 299 302 304 305 306 308 308 310 312 314 315 316 317 317 318 318 318 319 319 319 320 321 321 321 320 319 317 316 317 317 318 320 318 320 318 319 321 317 315 315 316 317 314 317 321 324 321 321 319 319 321 320 321 321 322 322 321 322 325 322 321 321 321 322 323 322 320 320 320 320 320 321 320 320 323 321 317
293 295 295 296 295 294 296 292 290 289 283 280 285 290 281 279 285 291 295 296 297 300 303 305 306 307 309 310 311 313 315 316 317 318 319 319 319 319 319 319 319 320 321 322 320 318 316 315 317 317 318 316 316 318 318 317 322 320 314 315 312 311 317 318 317 317 318 317 317 318 318 319 319 319 320 320 320 321 321 322 322 321 320 323 324 319 319 319 319 319 318 319 319 319 319 320 319
296 294 294 291 293 291 292 290 288 284 280 282 288 293 285 281 285 290 292 293 299 299 300 303 307 308 310 311 311 312 315 316 316 316 317 318 318 319 318 318 319 318 320 320 319 318 316 316 316 316 316 316 317 317 317 317 317 315 314 313 312 312 313 314 315 316 317 318 318 317 317 317 317 318 317 318 318 319 319 323 321 322 322 323 322 320 319 318 318 317 318 318 319 318 319 318 319
295 290 291 286 287 287 285 284 285 279 277 283 290 293 291 283 286 289 294 296 301 301 301 303 306 308 309 310 312 312 315 316 316 316 315 316 316 316 317 317 318 319 319 319 318 317 316 316 316 315 316 316 316 317 318 317 317 316 315 314 313 312 314 316 315 315 316 318 319 318 316 317 316 316 315 315 316 316 319 317 321 319 321 319 319 318 318 318 317 317 317 317 316 316 317 318 316
292 289 287 284 279 280 278 279 278 278 282 287 290 293 287 284 285 291 295 298 301 303 304 305 307 309 310 311 312 313 315 316 316 315 315 315 316 316 316 317 317 317 318 318 318 316 316 316 316 315 315 315 315 316 316 316 315 315 315 315 314 315 314 315 315 316 315 316 316 316 314 313 313 314 313 314 314 315 318 316 318 318 318 320 319 318 317 316 315 316 316 315 315 315 315 315 314
289 287 284 279 276 274 276 277 278 277 283 289 289 292 284 287 291 295 296 300 304 305 306 307 309 309 311 312 313 313 314 315 316 315 315 315 316 316 316 317 318 318 318 318 318 317 316 316 316 316 315 315 314 316 316 315 315 315 315 314 313 317 313 316 314 316 315 315 316 314 314 313 313 312 312 313 314 317 317 319 319 319 320 318 321 319 317 317 316 315 315 315 314 313 315 314 313
291 294 288 285 279 280 277 278 278 280 281 285 291 285 283 283 288 297 299 303 305 306 308 309 311 311 312 314 314 314 314 314 315 315 315 316 316 316 316 317 317 318 318 318 317 317 317 316 316 316 314 315 315 316 316 315 315 316 316 314 316 317 315 316 315 317 316 315 314 314 312 312 312 312 313 314 316 315 318 318 319 318 319 318 317 316 318 316 314 315 316 314 314 312 313 313 312
290 293 290 287 287 283 283 279 279 281 280 281 284 284 287 289 296 298 302 304 305 308 309 310 311 311 312 312 312 313 314 314 314 315 315 316 316 316 316 317 318 318 318 317 317 317 316 317 316 316 316 316 316 318 316 317 314 314 314 313 314 320 319 316 317 316 315 315 314 313 313 312 312 312 312 313 314 316 316 317 317 317 318 317 317 316 315 315 313 312 312 311 311 316 312 311 310
288 288 286 289 292 288 279 280 286 283 279 278 281 286 289 294 298 297 299 302 303 306 308 310 310 311 310 311 312 313 313 313 313 314 315 315 316 316 317 317 318 319 318 317 317 317 317 317 316 315 315 316 316 318 316 316 315 314 313 313 314 317 317 315 314 313 314 314 314 313 313 312 312 310 313 316 313 314 315 315 315 316 317 316 316 315 314 313 312 311 310 310 309 309 312 310 309
287 285 289 292 296 293 286 281 279 276 277 280 283 284 284 286 285 295 297 298 300 304 307 309 310 310 309 310 311 312 313 313 314 314 315 315 316 316 317 318 319 319 319 318 318 317 317 317 317 315 315 315 316 317 316 315 314 313 312 312 312 315 316 315 313 313 314 314 312 312 311 311 310 313 315 316 313 314 316 321 314 315 315 316 314 312 312 311 311 310 309 309 309 309 309 310 311
292 292 296 290 282 283 284 281 276 276 274 276 279 284 284 287 288 291 294 296 298 301 304 306 307 308 309 309 310 312 313 312 312 313 314 314 315 316 317 318 320 320 320 319 318 318 318 317 317 316 315 316 317 317 317 316 314 314 315 315 313 314 316 315 314 314 312 312 311 310 310 310 310 313 312 311 311 313 314 313 314 314 316 314 311 311 310 309 309 308 309 308 308 309 308 307 308
299 299 296 297 289 288 283 281 281 282 277 276 279 283 283 291 291 296 295 298 299 301 302 305 307 308 308 308 309 311 311 311 312 313 314 315 315 316 317 318 320 320 320 320 318 318 318 318 317 316 316 316 316 316 318 315 313 314 315 314 314 315 317 313 314 312 311 311 312 312 310 309 309 314 309 311 310 311 312 312 313 312 311 310 310 309 308 308 308 307 307 307 307 307 306 305 304
293 293 290 290 291 293 289 288 287 282 278 275 276 276 281 288 296 296 298 299 300 301 302 304 306 307 308 308 308 310 311 311 312 313 314 315 315 316 317 319 321 321 322 320 319 318 318 318 317 316 315 315 316 316 317 314 314 314 316 314 314 314 314 313 311 310 310 310 311 312 309 309 310 308 309 309 310 310 310 311 310 310 308 307 308 307 307 307 307 306 306 305 304 304 303 302 303
293 291 290 291 290 286 281 281 288 288 281 281 278 277 282 292 302 299 297 297 300 302 302 302 304 305 306 307 308 309 310 311 312 313 314 315 316 316 317 319 320 321 321 320 319 318 318 317 317 316 316 316 316 315 316 314 314 314 314 313 313 312 312 311 311 310 310 310 310 310 310 310 307 308 308 309 310 310 309 310 308 307 306 305 306 305 305 306 306 305 305 305 303 301 299 299 299
Wind_Speed
5 4 4 4 2 1 3 2 1 2 1 5 4 1 6 1 2 9 9 7 9 5 3 9 6 1 1 5 12 9 6 4 3 5 4 1 2 4 5 6 3 2 4 2 4 5 6 10 12 11 11 11 11 12 13 12 11 12 13 13 12 11 12 12 11 10 11 12 13 13 12 13 13 13 14 14 14 13 14 17 16 16 15 15 17 16 16 15 15 13 11 11 13 13 12 13 13
2 4 4 4 3 2 2 1 1 2 2 3 8 0 6 3 14 9 9 10 7 8 8 11 12 15 16 13 9 10 9 6 2 1 4 3 4 2 3 3 2 3 2 2 3 4 5 7 11 12 11 11 12 12 12 12 12 11 11 14 10 10 8 11 11 11 12 13 13 13 13 12 12 12 13 13 12 13 15 16 15 14 16 16 16 16 15 15 14 13 12 11 13 12 12 11 11
2 5 6 7 2 1 0 1 1 1 1 4 7 3 2 13 10 10 11 11 11 14 14 14 13 9 9 4 6 4 3 3 4 5 4 3 4 3 4 4 2 3 2 2 3 4 4 6 12 13 11 11 12 11 11 11 13 14 12 13 11 4 6 10 11 11 12 12 13 14 12 11 11 11 12 12 12 11 15 15 14 15 14 14 14 14 15 14 14 13 11 10 12 11 9 9 9
1 2 3 3 2 3 1 1 2 1 4 5 6 6 4 11 13 11 10 11 12 11 7 6 4 7 4 12 7 8 5 1 2 2 0 2 1 3 4 4 6 3 2 2 4 5 4 8 13 14 11 11 12 11 11 11 11 15 13 11 11 6 6 9 10 11 12 12 13 13 12 11 9 10 12 10 9 14 14 13 13 13 13 13 14 13 14 13 13 12 11 10 10 9 8 9 8
2 0 2 2 1 2 1 2 2 2 5 2 3 3 13 13 14 14 10 10 8 3 4 6 6 3 5 7 2 2 3 2 2 5 1 2 3 1 1 3 4 3 4 4 4 5 5 12 14 13 12 12 12 11 11 11 13 14 14 13 9 7 6 9 10 11 12 12 12 12 12 11 10 10 11 10 10 13 14 12 12 13 13 13 13 12 12 12 12 11 10 9 9 8 8 8 7
2 3 2 3 1 2 1 2 3 2 3 1 3 5 8 11 12 7 8 8 9 7 4 3 7 8 4 5 2 3 1 3 0 2 2 2 2 2 0 3 2 2 3 4 4 5 5 12 13 12 11 12 11 11 11 12 13 11 12 11 12 10 8 9 11 12 12 12 12 12 11 12 11 10 10 10 11 11 12 13 12 12 12 12 11 11 11 10 10 9 9 9 8 8 7 7 6
2 4 2 1 2 1 3 2 4 2 7 4 2 3 10 13 14 15 10 8 6 8 1 8 12 11 8 3 5 3 1 3 1 1 2 4 2 3 1 0 1 5 5 4 3 6 7 12 13 12 12 12 11 11 11 12 13 14 13 13 12 9 10 11 11 12 12 12 12 12 11 12 11 11 10 10 10 9 11 13 11 10 11 10 10 10 9 9 8 7 8 8 7 7 6 6 5
0 2 1 2 2 1 1 2 2 3 3 2 3 7 10 11 12 13 14 9 8 5 6 6 2 9 5 3 3 1 3 4 4 5 6 6 4 2 1 0 4 5 5 3 3 4 11 13 12 12 12 12 11 11 11 12 11 12 12 13 11 10 9 10 11 11 12 12 11 11 11 11 11 11 11 9 9 9 10 11 11 11 11 10 8 8 7 6 6 6 6 6 7 6 5 5 5
2 1 1 1 1 1 2 2 3 1 2 4 4 5 4 3 7 10 7 5 10 8 9 9 6 8 2 6 4 2 2 4 5 6 7 5 3 2 2 1 4 6 6 5 5 4 5 12 12 11 11 12 11 11 11 12 12 11 11 12 12 9 7 9 11 11 12 11 11 10 10 10 10 10 9 9 8 9 10 10 10 10 9 8 7 7 7 7 6 5 5 5 5 5 5 4 4
0 2 2 2 2 3 0 4 6 4 2 3 3 3 4 7 1 5 13 8 8 10 5 6 4 11 10 9 5 1 3 6 6 8 5 4 3 4 5 3 4 7 6 5 4 3 4 12 13 11 11 11 12 10 9 10 12 12 11 12 11 9 8 9 10 10 11 11 10 10 10 10 9 9 8 8 8 8 9 9 9 8 7 7 7 7 7 7 6 5 5 5 4 4 4 3 4
2 1 3 0 2 3 1 4 5 2 3 2 3 5 3 4 3 4 5 10 5 8 11 14 13 12 7 4 3 3 5 6 6 6 6 5 4 5 4 5 5 5 6 6 6 5 5 5 13 12 11 11 10 10 9 9 11 12 12 11 11 10 8 8 8 9 9 10 9 9 9 9 9 8 7 7 7 7 7 8 8 7 6 6 6 7 7 7 6 6 5 4 4 4 3 3 3
1 0 0 2 3 4 2 7 5 1 0 1 1 2 2 2 2 6 6 11 5 6 3 1 5 8 9 5 2 3 5 8 7 5 5 4 5 4 4 4 6 6 6 6 6 5 5 5 5 10 12 12 10 9 9 10 10 10 11 11 10 9 7 7 7 7 9 9 9 9 9 9 9 7 7 6 6 6 6 7 6 5 5 5 6 6 6 6 6 6 6 5 4 3 2 4 3
2 2 0 1 3 3 6 9 4 6 2 1 2 3 3 6 6 5 4 8 5 7 6 5 13 1 4 3 3 3 4 7 6 5 4 4 4 4 4 5 6 6 6 6 6 6 5 6 5 5 9 13 11 9 9 9 10 11 11 10 9 8 8 6 6 6 8 9 9 9 9 9 9 7 6 5 4 5 5 5 5 5 4 4 5 5 5 5 6 5 5 4 3 2 2 3 3
4 4 5 2 0 0 6 5 4 3 1 1 2 2 2 1 3 4 3 11 11 9 4 8 5 8 6 4 3 4 4 5 5 4 3 4 3 4 5 4 6 6 6 6 6 6 6 7 6 6 6 4 3 7 8 8 9 11 10 9 8 8 7 6 6 6 7 9 9 9 8 8 8 7 6 5 4 3 2 3 3 3 3 3 4 4 4 4 4 5 4 3 2 2 3 3 4
2 2 1 1 2 3 1 6 6 4 2 2 2 2 4 7 4 5 7 7 9 6 4 6 1 3 3 3 4 4 5 4 3 3 4 4 5 4 4 5 6 6 6 6 5 5 5 6 6 5 4 3 2 1 1 4 10 9 8 9 9 7 6 6 6 5 7 8 8 8 8 8 7 6 5 4 3 2 1 2 1 1 1 1 1 2 2 3 3 3 3 2 1 1 2 3 4
4 2 1 1 2 4 1 5 2 4 0 1 1 5 11 11 11 8 7 4 4 9 8 5 7 2 6 11 11 9 6 4 3 3 5 6 4 4 4 4 5 5 5 5 5 6 5 5 4 4 3 2 1 2 3 2 6 9 8 9 9 8 7 6 6 5 6 7 8 8 8 6 6 5 5 2 1 2 1 0 1 1 2 2 2 2 1 1 1 2 2 0 0 1 2 3 4
1 2 1 2 3 6 2 2 3 3 3 3 4 2 4 7 8 10 7 11 15 12 14 10 10 14 15 11 9 7 5 5 5 5 6 5 4 4 4 4 4 4 4 5 4 4 5 5 4 3 3 2 2 2 3 3 5 7 5 8 8 7 6 6 5 4 5 6 5 6 5 4 3 3 3 2 1 1 2 2 2 2 2 3 3 4 4 4 3 2 1 1 2 3 3 3 4
2 1 3 5 3 4 5 7 6 8 7 4 4 4 7 6 3 6 9 12 12 14 15 11 14 11 13 11 13 9 6 5 2 5 4 5 3 4 4 3 3 4 4 4 4 3 4 3 3 3 3 2 2 3 3 3 3 4 3 2 2 3 4 4 1 1 3 1 3 2 2 3 3 3 2 3 3 2 4 4 3 3 3 4 4 5 5 6 6 5 4 4 4 4 5 3 3
1 0 5 5 2 1 2 4 8 6 3 6 5 5 3 3 3 2 8 8 9 14 13 12 8 3 9 11 11 11 7 4 3 3 4 5 4 4 3 3 3 3 4 2 3 3 1 1 1 3 3 3 3 2 2 2 1 1 1 1 1 2 3 2 0 2 0 0 0 1 2 2 3 3 1 2 2 5 3 5 5 5 5 5 5 5 6 6 6 6 7 6 6 6 4 3 4
3 2 5 3 3 5 5 6 5 3 8 7 7 8 9 2 5 4 9 8 9 15 13 6 5 6 7 7 8 8 7 5 3 4 4 3 2 3 3 3 3 3 2 2 3 2 1 1 2 2 3 2 2 1 1 1 1 1 2 1 1 1 0 1 1 1 0 1 0 0 0 2 2 2 3 5 5 3 3 5 7 7 6 6 7 5 5 5 6 5 6 8 5 4 4 3 3
2 6 3 5 7 9 2 5 5 6 5 5 5 8 12 5 2 5 9 11 10 7 5 9 10 9 8 7 7 4 3 5 4 4 4 3 1 0 2 3 3 3 2 1 2 2 2 2 2 1 2 2 2 3 3 2 2 1 1 0 0 0 0 1 1 1 1 1 1 0 0 1 2 2 1 2 2 2 3 3 4 3 1 2 5 3 3 3 3 2 3 4 4 4 5 4 3
4 5 11 11 6 10 8 7 7 6 5 4 4 8 10 6 12 8 9 10 6 3 7 6 8 6 8 7 4 4 4 5 3 3 3 2 3 3 2 3 3 2 2 2 0 1 1 1 2 2 2 2 2 3 3 3 3 1 1 1 0 0 0 1 1 2 1 1 0 0 0 1 2 2 3 2 2 2 3 4 4 3 2 3 3 4 4 4 3 3 3 3 4 4 4 4 3
9 4 6 4 7 12 6 7 6 6 4 5 6 7 10 13 10 10 15 11 5 6 6 7 5 1 2 5 4 5 7 7 3 2 2 2 1 3 2 2 2 2 1 1 1 2 1 1 1 1 3 2 2 1 1 0 1 0 1 1 1 0 0 1 0 1 1 1 1 1 2 3 3 3 3 3 2 2 3 4 4 4 3 4 4 4 5 4 4 4 4 4 4 4 4 4 4
12 4 5 5 5 8 6 5 7 6 9 7 6 7 9 12 15 7 16 12 10 5 8 9 1 2 3 3 5 9 7 7 8 6 5 6 2 5 3 3 1 1 1 1 2 2 2 3 2 2 2 1 0 1 0 1 0 0 2 0 1 2 1 0 1 1 2 0 0 1 1 1 0 1 0 1 2 2 2 3 4 4 4 4 4 4 5 5 5 4 3 4 4 3 3 4 4
13 6 3 6 7 6 7 7 9 9 6 7 13 14 10 14 10 7 10 12 13 11 9 7 6 6 3 3 2 4 5 6 8 7 5 4 2 2 3 2 1 1 2 3 1 2 4 1 3 2 2 3 3 4 3 3 3 2 2 2 1 2 1 2 2 2 2 1 0 0 0 1 1 1 3 2 2 2 3 3 4 4 4 5 3 4 5 5 5 4 4 5 4 4 3 5 4
2 7 4 5 5 5 6 8 7 8 5 11 16 15 14 15 12 9 8 9 11 11 9 9 8 9 7 6 3 4 6 7 7 7 7 6 1 6 1 1 1 3 4 3 2 3 2 3 3 2 3 4 3 3 2 2 2 3 2 3 3 2 1 2 2 1 1 2 4 1 0 1 2 2 3 3 4 5 5 4 3 4 4 5 4 5 5 5 5 4 5 5 5 5 3 5 5
7 9 8 9 6 6 2 6 4 4 4 10 14 12 10 6 3 2 3 6 8 10 9 6 9 9 7 6 4 4 6 5 6 6 9 6 2 4 1 0 2 2 2 4 2 2 2 2 3 3 3 3 3 2 2 2 2 4 4 4 4 3 3 3 4 4 3 2 1 2 2 0 1 2 3 4 3 4 5 5 6 3 4 4 4 6 4 5 4 5 5 5 5 5 5 4 4
11 12 9 6 4 4 5 5 6 5 3 4 11 6 3 5 4 7 9 9 8 12 8 6 7 8 8 6 6 5 7 6 5 5 9 8 5 4 3 3 3 2 3 4 1 2 2 2 3 3 2 3 2 2 2 2 2 2 2 2 3 4 3 2 3 3 4 5 4 3 0 0 0 2 2 3 3 3 3 4 4 3 3 4 5 5 5 4 4 4 4 4 5 5 6 4 2
12 13 9 4 3 3 1 3 1 1 2 4 10 11 5 5 5 7 6 6 6 10 8 6 6 6 5 6 5 4 5 7 5 4 4 6 8 4 5 3 4 2 5 2 1 2 1 2 2 2 1 1 2 2 2 2 2 2 2 2 3 3 3 3 3 3 2 2 1 1 2 2 2 2 2 2 1 1 2 3 5 4 3 5 2 3 3 2 2 3 4 5 5 5 5 4 2
7 5 8 3 2 2 2 1 4 7 0 2 2 3 6 5 1 6 5 7 7 9 6 5 5 5 4 3 4 3 5 8 6 6 5 2 6 7 7 6 5 3 3 1 1 2 2 1 1 1 1 1 1 1 1 2 3 4 2 2 3 3 3 0 0 0 2 3 4 2 2 2 2 0 1 1 1 3 4 4 5 6 5 6 3 0 3 5 4 2 3 1 3 1 0 0 0
2 2 5 2 2 0 4 1 3 5 2 1 3 5 4 6 6 3 6 7 10 8 7 5 3 3 3 2 3 4 2 2 6 7 8 4 4 7 8 5 3 3 3 2 3 4 1 1 1 1 0 0 1 2 2 2 1 2 1 0 0 3 5 6 4 3 5 4 4 4 3 4 4 5 4 5 5 4 5 5 5 5 5 3 2 1 1 1 0 1 1 0 2 2 2 3 1
2 2 2 4 2 2 3 5 2 4 1 1 9 4 6 8 8 6 5 6 6 10 6 4 3 3 3 3 2 2 4 2 3 5 8 2 5 5 7 7 5 3 4 3 3 1 1 0 1 1 0 1 1 1 1 2 2 2 2 3 5 4 6 5 5 5 5 5 5 5 4 4 3 3 3 2 3 3 3 4 4 5 4 4 5 5 3 4 2 4 2 1 3 3 4 4 2
4 3 1 1 1 1 1 2 0 5 3 1 1 3 0 4 9 7 5 6 5 8 6 4 3 3 4 4 4 4 6 6 5 5 7 6 5 5 5 6 7 5 4 3 2 1 1 2 0 0 1 1 1 2 2 2 3 4 2 3 4 4 6 5 4 5 5 3 3 2 2 2 2 3 3 3 1 2 3 3 4 3 3 3 3 3 4 3 3 3 4 3 2 2 3 3 4
3 1 2 4 3 1 0 2 1 3 5 1 1 6 7 4 9 9 5 6 5 7 6 6 7 7 7 6 5 6 6 7 8 8 7 6 6 6 5 5 5 6 5 4 4 4 4 3 1 1 2 2 1 1 2 3 4 4 4 4 3 5 4 3 4 4 4 3 2 1 2 4 4 4 4 3 1 2 1 2 2 3 2 3 3 3 3 2 3 3 4 3 3 3 5 4 4
5 1 0 3 0 3 5 4 4 5 4 5 2 2 3 4 7 8 7 6 6 7 8 9 9 8 8 6 6 6 6 6 7 7 8 7 6 5 4 4 3 5 4 5 4 3 2 2 1 1 1 1 1 1 2 3 3 3 2 3 3 4 4 3 3 4 3 3 4 4 4 4 4 4 4 4 4 3 3 3 3 3 2 3 3 3 3 3 3 3 3 4 4 3 3 3 2
6 7 6 3 4 2 5 5 4 9 5 4 5 5 4 5 7 7 6 6 7 6 6 4 4 4 3 5 7 7 6 6 4 5 5 5 5 4 4 3 2 5 5 5 4 4 4 2 1 0 1 1 1 1 2 3 2 3 2 4 4 3 3 3 2 2 2 4 3 4 3 3 3 3 3 3 4 3 3 3 3 3 3 3 4 5 4 4 3 4 4 2 3 4 3 3 3
5 2 4 5 4 2 2 4 7 8 3 6 6 4 6 9 11 11 9 6 4 4 7 5 4 4 6 6 8 9 8 8 5 6 6 5 5 4 3 3 3 5 5 5 4 4 4 3 2 2 2 1 0 0 0 0 1 0 1 1 0 1 2 1 2 2 4 4 3 3 3 3 3 3 3 3 4 3 3 3 4 4 3 3 4 4 4 4 3 2 2 1 2 4 3 4 5
4 4 5 3 3 3 4 8 9 8 7 5 4 4 6 12 10 9 8 7 9 10 8 7 8 9 9 8 8 9 7 5 6 4 3 3 2 4 3 3 4 6 4 5 5 5 4 2 3 3 1 1 1 2 2 1 1 2 2 1 1 1 2 2 0 2 3 3 3 3 3 3 4 3 3 3 3 3 4 4 3 4 4 4 3 3 4 4 5 5 3 2 2 1 1 2 5
2 6 6 5 2 2 2 3 7 9 5 5 5 7 8 9 10 9 12 13 9 11 13 13 13 11 9 9 7 7 7 7 7 6 6 6 5 4 3 4 4 5 5 5 4 4 4 4 4 3 3 3 2 2 2 1 0 1 1 1 2 1 1 0 1 2 2 3 3 3 3 4 4 3 3 3 3 4 4 4 3 4 4 3 5 5 4 5 4 4 4 2 2 2 1 1 4
4 2 6 5 5 4 1 3 6 7 7 4 6 9 6 1 5 10 11 11 8 10 11 11 10 12 11 12 10 9 9 10 10 9 8 6 6 6 4 5 5 4 4 4 4 6 5 5 4 3 3 2 3 1 1 0 0 1 2 2 1 1 3 2 4 3 3 3 3 3 3 3 3 3 3 4 3 4 4 3 3 4 4 3 3 4 4 4 4 3 3 2 2 2 2 2 4
2 1 2 4 3 5 5 6 6 6 4 4 6 2 4 2 6 4 5 3 4 7 8 7 7 7 6 4 4 5 11 11 10 9 8 7 6 5 5 4 5 5 5 5 5 5 5 6 5 4 4 3 2 1 1 0 1 2 3 3 2 3 4 5 4 3 2 0 1 3 3 3 3 4 4 4 4 3 3 4 4 3 4 4 3 4 3 3 2 2 1 2 2 3 1 1 3
1 1 2 3 7 6 2 2 4 1 2 3 8 2 1 1 3 9 7 3 6 5 9 11 11 7 4 6 6 5 6 7 11 12 10 8 7 5 4 4 5 6 6 6 6 5 4 4 3 3 3 3 2 1 1 2 2 1 2 1 1 2 1 2 2 3 1 2 2 1 4 5 4 4 4 4 4 4 4 4 3 4 4 5 4 3 3 3 4 3 3 1 2 1 3 2 1
5 2 1 0 1 4 6 5 4 0 2 3 2 2 1 4 2 8 8 7 9 2 8 11 10 7 5 6 5 7 8 6 5 7 8 8 7 7 6 5 6 6 6 4 4 5 4 4 4 4 4 3 2 1 3 3 1 1 1 2 3 3 3 1 1 2 3 1 1 3 4 4 4 5 4 4 4 4 4 4 4 3 3 3 3 4 4 3 3 3 3 3 3 1 1 2 1
1 3 3 3 4 3 3 6 5 1 1 3 4 3 1 1 2 4 10 11 7 6 9 9 9 7 7 6 5 6 8 8 9 9 10 10 9 10 9 7 6 8 6 4 4 4 4 4 4 4 3 3 2 1 1 1 2 3 1 2 3 3 3 2 3 2 1 1 3 3 5 4 4 4 4 4 4 4 3 3 3 4 3 3 3 3 3 3 3 4 3 3 3 4 3 3 1
2 2 1 2 2 3 1 5 7 3 4 3 4 2 3 1 1 2 9 7 4 11 12 11 9 8 7 6 6 6 7 9 10 9 10 10 10 9 7 7 6 5 5 6 5 5 4 4 4 3 3 2 2 1 1 0 2 2 2 3 2 1 2 4 3 0 1 1 3 3 4 3 3 4 3 3 3 4 3 3 3 3 3 3 2 4 3 3 3 3 4 5 4 4 3 1 2
3 2 2 0 3 2 1 0 2 1 4 3 3 1 2 2 3 4 1 3 7 12 14 11 8 10 9 8 6 5 5 6 7 9 9 9 9 8 6 5 4 5 5 5 4 4 4 4 4 3 3 3 3 2 2 1 1 3 2 1 3 1 1 1 1 2 1 2 4 4 3 4 3 4 4 3 4 3 3 3 3 3 3 2 2 3 3 3 3 3 3 3 3 4 3 3 2
1 4 2 4 4 5 3 3 2 4 2 3 4 3 4 0 3 7 8 8 11 6 1 4 5 7 7 7 6 6 7 7 7 6 5 5 5 6 5 6 6 4 4 5 6 6 5 5 4 4 3 3 3 3 2 1 1 2 3 2 2 2 2 2 3 3 3 4 5 3 3 3 3 3 4 3 3 3 3 2 2 2 2 2 3 3 3 3 3 3 3 4 4 4 4 4 4
3 1 1 5 2 7 5 5 6 4 2 6 4 2 4 4 3 5 9 3 9 13 11 11 10 10 10 8 6 6 7 7 7 6 5 4 4 4 4 6 6 5 5 6 6 5 6 5 4 4 2 3 3 3 2 0 1 2 3 3 3 1 4 4 5 4 4 6 4 4 1 2 2 2 3 4 4 4 3 2 1 2 2 2 3 2 2 2 2 3 3 4 3 3 4 4 4
6 4 7 1 2 5 2 6 4 0 1 4 1 1 2 1 7 7 5 1 5 9 12 14 13 11 10 8 7 6 6 7 8 7 6 6 7 7 7 7 5 4 6 7 7 6 6 5 5 5 4 4 4 3 3 1 2 3 3 3 2 2 3 4 4 4 2 5 5 4 3 2 1 3 3 3 3 4 1 2 2 2 2 2 2 3 3 3 3 3 3 3 4 4 3 4 5
6 4 3 5 2 2 0 1 1 3 7 7 1 1 1 2 6 4 5 6 10 11 10 11 12 11 10 9 6 6 6 8 8 7 7 7 7 7 7 7 6 5 6 8 7 6 5 5 5 5 5 4 4 3 3 3 3 3 2 3 2 3 3 4 4 5 4 4 5 5 4 3 2 1 1 2 2 2 0 1 1 0 1 1 2 2 3 3 3 3 3 4 4 3 4 4 4
1 2 4 4 5 1 0 1 1 1 5 8 6 2 2 1 3 4 10 10 8 7 6 7 9 9 8 6 5 5 5 6 7 7 9 9 9 8 8 7 6 5 6 7 6 7 6 6 6 5 5 4 4 5 4 4 3 2 2 3 2 3 4 4 4 5 6 5 4 5 3 2 2 1 0 1 2 1 0 1 2 2 2 2 2 3 3 4 3 4 4 3 3 3 4 5 4
1 4 6 5 0 6 3 4 3 2 2 5 6 1 1 2 3 3 1 5 4 4 5 5 6 4 5 5 6 7 7 7 7 7 8 8 8 8 7 7 7 5 7 7 8 7 7 7 7 7 7 6 5 5 4 5 4 4 4 4 3 3 3 3 3 3 4 5 5 5 4 3 3 1 0 1 3 0 1 1 2 3 1 2 3 4 4 4 3 4 3 3 4 2 5 5 3
4 4 2 3 6 6 3 2 1 2 4 1 2 6 5 5 8 8 7 5 4 5 5 5 5 5 5 7 7 7 8 7 8 8 9 9 8 8 9 9 7 7 7 9 9 9 9 8 8 7 6 5 6 6 6 5 5 4 4 4 4 4 5 5 5 4 5 4 5 4 4 4 3 2 0 1 2 0 1 1 3 3 2 3 4 3 4 4 3 3 3 3 3 3 4 4 3
3 5 5 1 2 6 3 1 3 4 2 3 2 2 3 4 1 3 4 3 4 7 7 8 7 7 9 8 8 9 10 11 9 8 7 8 9 10 9 8 8 9 9 9 10 9 9 9 9 9 7 8 7 6 6 6 6 5 4 4 4 5 5 5 5 5 5 5 4 3 2 2 2 0 0 1 1 1 1 1 2 2 3 4 4 3 4 3 4 4 3 2 1 2 4 5 4
5 1 3 5 1 5 5 4 1 2 1 3 4 3 2 2 1 1 4 5 6 5 4 5 7 8 10 8 9 8 6 5 6 8 8 9 10 10 10 11 10 9 9 10 9 8 7 7 8 9 9 9 8 6 5 5 6 5 5 4 4 4 4 4 3 4 4 5 4 3 3 3 0 1 2 3 1 2 0 1 1 3 5 4 4 4 4 4 4 4 3 4 4 5 6 6 5
4 3 7 1 6 1 3 0 3 3 1 3 3 5 1 2 1 1 3 5 7 6 5 9 12 13 11 9 8 8 8 8 8 9 9 10 11 12 13 12 12 11 10 10 10 9 10 9 8 8 7 6 6 7 7 7 6 6 5 4 4 4 4 4 5 6 5 5 5 4 4 2 1 1 1 2 2 1 2 1 3 5 4 4 4 3 4 4 4 4 4 6 4 6 6 6 5
6 9 4 5 1 1 3 2 2 2 1 1 0 4 3 6 3 2 5 8 8 9 11 10 9 9 9 7 8 8 9 9 9 10 11 11 11 11 11 11 11 9 7 8 9 11 11 9 9 9 10 8 8 8 7 7 6 6 6 5 4 4 5 5 6 6 6 5 4 4 4 4 2 1 1 3 1 2 2 2 4 4 4 4 4 4 3 4 5 5 5 5 5 6 6 4 5
4 4 3 2 3 3 3 1 3 2 3 0 1 1 6 7 4 4 3 3 2 6 8 7 6 7 7 7 8 10 10 10 11 11 10 10 9 10 10 9 7 7 8 10 10 9 9 10 10 9 8 9 9 8 8 7 6 6 6 5 5 4 5 6 6 5 5 5 5 5 4 2 3 0 1 1 0 2 2 4 4 4 4 4 4 3 3 4 6 6 5 4 5 5 5 4 5
Wind_Direction
291 338 331 343 15 63 60 10 41 307 67 249 266 194 262 354 167 106 89 75 64 355 356 70 69 1 61 93 104 86 19 118 220 134 197 118 134 153 191 182 184 173 93 71 87 90 95 106 108 108 109 106 106 109 109 107 114 113 112 112 106 101 101 105 103 103 103 99 99 100 102 108 113 114 110 107 105 108 109 107 109 112 112 105 101 99 100 101 104 107 109 110 112 105 103 104 107
312 332 13 348 338 64 306 129 105 333 4 330 262 91 270 10 82 95 107 106 139 131 78 78 87 96 102 113 101 75 35 16 341 85 62 97 138 169 174 186 173 133 90 82 91 96 100 108 115 111 107 107 109 107 107 114 111 103 96 87 68 63 84 101 103 104 102 100 98 97 98 99 104 106 108 112 116 116 114 112 116 110 94 98 98 99 100 101 102 103 108 111 114 110 101 98 99
345 5 9 5 19 79 244 51 321 274 34 296 282 197 342 104 101 113 129 125 136 138 129 113 111 98 114 126 55 341 151 296 352 43 71 159 140 161 198 170 150 153 120 109 107 97 100 107 109 106 102 110 109 107 112 111 109 96 88 83 77 79 108 98 103 103 101 99 98 96 96 100 108 114 116 113 116 113 96 103 105 100 102 104 105 104 102 100 100 103 103 108 109 104 99 90 88
83 52 91 59 320 17 65 16 128 192 277 239 293 299 106 107 116 117 123 132 132 136 144 135 66 323 152 94 114 72 91 244 331 24 47 167 303 118 137 123 145 140 129 106 105 105 107 114 111 109 109 110 110 110 114 113 107 107 113 108 115 164 104 90 98 99 97 95 94 95 97 100 100 107 106 114 119 103 102 107 112 110 107 104 104 103 101 102 102 103 104 106 110 103 93 88 85
39 79 111 83 103 349 83 209 199 99 256 226 351 89 122 121 130 135 153 150 148 166 136 148 101 59 67 77 24 125 140 303 7 24 42 26 25 47 62 117 131 140 114 105 107 107 115 119 113 109 110 110 112 116 119 118 113 113 119 116 118 107 87 89 89 89 91 93 94 96 99 102 100 99 106 110 104 100 103 100 100 101 99 101 101 102 102 102 103 105 104 101 99 91 88 86 85
35 52 354 93 167 195 50 332 303 289 277 223 102 137 117 127 129 134 136 134 143 130 157 169 149 161 74 57 19 107 253 189 113 56 63 60 38 354 13 127 119 105 98 98 102 100 114 116 114 110 110 108 113 116 120 117 106 102 98 109 129 132 113 102 95 88 85 87 91 95 98 103 107 106 113 113 103 94 98 101 101 107 107 105 104 106 108 109 105 105 106 101 97 94 88 86 86
329 30 3 16 337 57 178 187 254 79 351 352 195 137 127 142 139 133 123 90 42 75 63 116 118 128 92 128 94 55 264 284 139 66 69 104 90 351 3 68 132 104 96 97 101 112 117 113 111 109 108 108 112 114 118 110 105 106 121 136 134 128 111 104 96 92 89 88 89 92 98 104 109 113 111 109 105 107 106 110 113 103 100 98 101 101 99 99 103 106 106 106 99 97 93 89 83
127 94 274 81 278 16 239 216 334 78 330 307 320 133 132 127 127 130 141 141 170 127 107 134 124 94 45 164 132 86 36 34 82 95 95 93 84 43 117 193 101 92 94 86 79 103 111 110 106 109 110 111 112 114 118 109 100 102 107 115 103 94 94 95 93 92 90 88 89 94 98 100 105 109 109 106 107 104 102 94 89 88 79 81 82 86 91 101 108 110 109 108 110 104 99 89 78
7 89 305 77 301 347 18 35 73 40 83 35 27 359 29 130 155 137 129 130 99 105 132 163 172 79 161 95 91 88 65 58 79 90 84 84 96 100 109 79 113 102 88 87 79 73 99 109 109 112 112 112 115 121 120 113 105 101 100 100 101 92 70 80 88 87 85 85 88 94 99 101 105 106 108 107 103 101 98 98 92 90 86 87 87 90 97 102 105 108 112 111 109 106 94 83 69
355 115 285 169 135 270 27 1 71 314 48 337 43 5 349 328 346 113 123 94 102 97 79 67 101 116 139 111 111 59 47 70 78 76 80 93 92 80 100 94 92 99 93 90 84 90 105 114 110 106 105 97 101 99 105 107 108 104 101 103 104 96 71 54 87 87 88 85 86 92 98 100 102 103 102 105 106 109 110 108 104 99 94 93 93 93 94 94 97 98 97 98 97 92 82 77 56
307 351 161 340 304 278 39 99 77 32 9 327 346 337 5 5 3 70 80 106 101 109 107 95 80 125 133 88 66 41 75 83 77 88 86 99 106 114 104 93 89 93 94 85 89 82 80 100 109 105 98 91 97 100 97 107 107 105 108 109 109 104 85 75 73 98 96 93 90 89 92 97 98 99 97 97 103 108 113 117 113 106 103 97 95 93 95 98 97 91 82 74 77 66 60 36 36
339 248 30 169 215 198 152 116 110 121 47 293 319 311 358 11 43 79 81 95 103 118 118 103 142 133 88 113 100 40 54 67 75 79 93 104 110 108 96 90 95 92 90 86 82 73 82 86 77 98 97 95 101 111 116 114 100 100 104 111 113 102 91 87 84 94 110 110 106 101 98 97 100 103 107 107 109 108 112 112 117 118 107 100 89 88 87 91 92 87 82 68 52 54 47 27 11
206 98 51 98 231 130 134 109 170 156 136 306 264 315 336 53 49 41 65 72 48 61 13 94 144 218 108 102 56 52 61 71 72 96 95 108 107 97 88 95 97 98 96 92 83 73 75 78 72 79 108 111 111 117 121 116 102 100 106 112 117 116 111 98 90 93 114 112 110 108 103 99 100 102 103 105 107 119 121 127 127 129 121 110 102 92 90 89 91 87 88 86 61 32 51 9 3
153 180 139 244 31 147 110 153 154 104 6 243 322 319 359 83 54 64 45 59 27 38 83 111 84 90 70 91 55 69 68 60 64 49 45 68 78 85 84 89 90 86 81 85 86 79 70 72 78 70 66 68 90 119 123 109 101 104 106 108 113 118 121 116 107 104 116 120 117 113 106 98 90 86 88 82 84 93 107 126 135 137 140 131 124 110 102 96 92 101 92 91 85 33 1 359 349
215 191 123 162 328 66 94 131 209 142 200 279 269 352 14 16 11 42 47 91 43 343 66 55 20 348 226 110 104 84 106 83 65 61 68 76 70 77 75 77 86 82 78 82 87 86 73 75 72 69 66 60 55 40 24 96 101 105 107 107 109 122 131 131 126 116 110 93 89 96 101 104 98 89 75 73 74 74 62 49 102 149 154 143 125 120 107 114 102 102 102 99 92 2 347 340 334
201 91 107 217 23 103 349 80 41 76 111 230 253 118 70 39 24 38 9 56 112 40 40 359 4 51 67 49 75 98 98 103 81 77 85 87 77 75 70 70 78 76 73 69 73 71 76 88 95 99 92 85 69 29 30 31 102 111 111 107 117 129 130 126 120 115 101 98 94 86 73 59 61 50 57 42 47 22 25 58 320 317 322 312 326 318 306 350 144 94 121 151 269 260 302 315 318
107 102 331 43 57 102 198 116 149 136 209 186 224 3 75 75 63 66 62 66 68 60 60 38 53 45 64 79 75 74 98 113 115 117 113 108 109 80 62 64 66 64 65 63 67 73 84 94 99 90 93 95 61 36 34 41 62 58 85 122 126 125 130 133 119 95 92 102 103 103 79 82 60 54 13 341 272 277 285 297 297 308 307 311 299 302 303 301 305 295 308 256 269 286 275 282 286
89 164 137 70 157 110 192 161 171 174 149 164 112 102 110 115 134 124 59 56 79 72 72 60 57 73 111 121 121 121 112 106 123 121 121 108 95 91 83 61 66 89 78 75 54 60 86 103 127 101 87 81 61 50 55 44 18 65 53 17 33 76 97 109 80 125 102 45 105 100 77 76 78 68 38 349 346 313 309 281 279 292 298 297 301 297 298 301 306 310 300 293 285 285 292 308 309
134 73 79 165 154 190 24 103 132 142 184 143 130 97 110 123 159 114 99 84 87 83 71 76 83 93 115 114 115 117 127 134 126 122 112 100 96 110 113 92 81 80 82 77 63 74 90 109 60 76 78 84 75 65 96 114 114 144 109 194 168 134 145 120 350 103 14 289 25 21 71 86 89 74 1 305 305 295 277 270 272 273 280 290 292 290 296 299 304 308 304 301 293 288 294 299 300
241 113 65 50 105 114 124 148 161 131 143 133 122 103 82 60 94 115 96 119 100 106 109 69 101 142 106 97 104 124 140 137 121 112 95 80 89 120 115 106 87 69 80 113 122 124 157 133 110 104 103 78 95 119 130 198 206 182 190 175 113 137 58 81 62 62 17 295 350 87 57 89 87 66 26 346 341 349 340 309 280 259 263 272 276 284 302 311 307 315 312 304 305 307 300 288 285
293 70 102 131 139 115 145 115 109 114 118 133 121 110 83 50 93 124 123 86 83 86 81 155 160 152 141 132 126 117 118 121 124 108 93 86 67 62 136 136 133 123 130 129 106 138 182 170 121 94 102 127 147 170 168 206 225 241 248 218 186 279 49 36 16 2 292 274 271 214 239 96 96 84 44 4 349 332 328 304 292 303 297 301 278 282 275 274 296 304 306 301 292 290 291 291 303
56 100 127 139 147 107 157 141 132 127 134 113 99 88 109 98 48 52 79 92 78 34 40 96 140 158 147 142 125 122 128 135 128 111 109 127 141 115 77 67 79 107 128 82 125 160 194 113 132 137 146 166 177 182 183 197 166 294 285 238 256 325 13 59 18 330 319 329 317 255 66 41 53 62 40 12 342 341 305 294 282 270 263 250 261 270 272 266 266 259 264 271 272 267 268 278 274
81 30 84 110 146 133 163 141 145 132 123 97 81 85 82 79 73 56 67 66 79 100 97 65 32 42 76 109 128 133 149 140 112 65 66 87 66 113 110 96 116 112 135 170 217 215 188 196 157 149 169 171 183 227 244 91 77 317 335 295 103 338 63 50 29 318 337 17 8 318 25 4 30 41 32 5 342 305 275 279 282 264 246 240 243 247 258 259 260 258 254 263 266 260 265 264 263
104 134 127 81 90 101 110 104 96 91 104 94 96 92 94 102 77 70 83 90 86 47 81 83 159 135 155 152 175 171 152 135 108 76 31 39 12 133 131 119 129 183 153 229 240 231 237 204 142 138 205 171 264 319 11 65 75 286 253 310 43 238 125 140 171 257 281 215 188 266 149 165 103 105 107 49 297 285 271 267 268 272 256 249 233 226 245 254 255 253 256 260 268 265 253 253 252
106 97 117 111 97 114 117 112 95 93 84 102 87 79 76 89 122 116 110 123 135 149 125 151 180 149 161 136 88 73 80 91 96 93 78 59 2 120 117 135 135 175 199 241 240 271 250 28 25 10 338 11 21 360 9 4 349 338 332 322 267 270 158 224 194 176 192 257 143 191 250 110 32 40 41 30 341 288 269 253 243 246 246 248 231 237 227 237 245 252 262 264 259 257 253 254 242
59 124 125 111 102 105 105 90 99 102 91 95 91 99 106 115 111 67 133 130 137 139 140 155 149 144 137 108 79 128 134 111 97 97 103 73 276 98 66 130 166 194 233 251 250 256 25 17 4 343 9 13 20 25 16 13 331 325 316 304 297 325 346 311 300 270 225 174 176 132 15 79 37 43 359 3 5 340 330 312 282 246 233 243 228 237 233 242 249 250 256 259 260 254 230 243 242
129 117 119 119 130 108 75 111 111 97 105 117 116 129 145 195 128 125 145 166 138 127 133 169 145 127 118 115 123 123 107 105 103 97 94 95 160 105 92 341 248 249 286 256 270 337 33 19 335 342 9 349 16 12 348 340 330 326 319 317 320 323 336 333 317 308 308 269 231 113 102 173 116 48 3 343 349 338 325 332 317 284 259 255 242 240 227 229 241 246 258 268 275 281 266 249 241
119 116 101 84 72 66 103 93 114 111 63 112 113 108 87 9 53 151 168 173 160 127 140 146 125 123 129 128 132 137 117 107 101 113 121 136 124 167 161 215 239 265 259 255 315 349 18 351 322 339 7 338 352 345 332 327 309 286 297 308 302 295 298 278 291 291 299 352 350 334 68 214 80 353 1 330 336 316 328 309 320 328 270 250 219 234 232 225 230 252 264 269 269 271 276 291 3
135 124 100 117 103 78 127 125 161 106 106 137 114 72 16 349 118 133 143 144 150 121 134 138 123 113 120 135 137 131 121 132 132 118 134 132 138 182 149 248 243 243 264 291 335 351 321 303 313 317 335 302 295 295 296 279 293 297 290 301 294 273 261 254 273 323 345 313 347 32 12 8 4 354 338 315 306 317 332 335 352 348 327 316 230 226 248 242 242 245 262 258 262 249 254 263 278
120 81 122 80 16 21 315 42 76 74 143 177 126 37 289 289 184 136 159 149 135 119 134 147 141 136 134 143 141 119 134 144 144 141 121 67 141 152 158 224 224 220 277 319 326 278 257 243 253 284 270 275 270 289 345 339 317 313 304 256 271 291 308 199 6 220 88 82 73 48 36 40 53 165 130 95 66 34 16 356 351 348 350 351 8 112 229 229 221 217 239 275 300 314 36 183 222
55 76 65 112 64 273 294 65 109 77 238 241 84 133 259 263 263 204 176 180 144 139 155 159 144 124 111 121 146 131 163 179 138 141 110 138 158 153 155 203 214 188 238 225 214 233 217 181 147 66 94 357 25 27 25 356 349 357 350 197 358 37 46 61 59 74 77 74 78 65 53 39 21 17 20 22 6 19 15 354 353 342 335 352 4 2 286 273 214 237 232 268 286 353 33 124 162
31 43 314 325 103 267 301 327 138 133 278 129 90 97 213 223 238 220 198 199 155 138 156 147 149 130 137 143 138 142 154 149 159 128 103 185 158 162 156 176 195 189 192 203 198 167 158 274 78 125 338 320 314 330 323 324 349 314 321 47 45 57 71 74 67 58 62 53 53 47 40 38 30 3 5 19 12 352 8 350 342 337 347 359 14 12 12 23 26 58 72 105 45 10 15 7 110
1 96 261 292 63 191 17 286 269 137 118 324 103 174 86 269 239 234 202 200 179 133 137 138 147 152 164 165 167 179 162 173 165 147 150 180 168 166 175 173 172 181 173 178 183 182 210 264 190 158 246 265 287 306 324 336 356 355 347 41 68 72 85 84 71 66 59 56 52 50 19 31 17 355 349 343 332 333 349 16 336 339 343 19 25 25 34 358 25 34 16 30 90 54 21 3 357
312 49 191 205 155 145 29 301 257 150 128 224 146 128 209 208 188 211 198 194 170 132 144 160 171 184 181 174 178 172 170 166 163 168 171 180 168 171 179 178 163 170 173 174 181 181 205 226 228 238 271 279 271 277 329 336 339 341 356 350 76 84 85 97 99 101 99 119 113 62 32 24 19 7 358 338 339 287 43 21 342 341 351 20 27 29 8 0 33 42 13 349 25 38 21 19 355
221 211 193 299 302 129 173 142 245 148 203 168 194 155 249 194 167 196 198 196 173 163 164 175 190 190 181 168 167 171 172 176 177 166 166 176 172 173 180 181 163 176 174 178 186 191 180 198 210 214 171 267 288 338 352 349 347 347 12 17 47 72 71 66 72 72 65 62 49 37 38 24 8 20 8 5 39 25 9 357 358 346 356 20 30 27 14 5 19 24 38 345 354 13 45 36 347
202 183 179 162 130 192 168 231 209 170 183 193 174 199 191 181 177 186 193 195 180 183 158 183 200 204 181 162 169 175 175 186 185 154 158 157 165 167 183 177 173 161 168 174 170 158 159 159 123 118 239 259 332 343 4 353 2 358 0 352 22 29 28 79 29 80 72 59 49 42 42 40 21 29 22 20 43 47 27 355 359 357 1 18 13 11 357 1 3 10 8 10 357 354 24 19 13
186 136 111 182 152 246 220 185 187 188 123 220 203 191 167 186 190 185 183 169 180 179 171 185 194 199 209 192 173 177 178 181 184 163 158 160 164 177 180 168 167 143 151 156 149 152 163 168 141 206 250 291 182 227 32 51 100 39 24 51 188 270 162 101 40 24 50 38 44 47 38 30 27 24 28 29 31 27 27 7 23 12 7 28 31 18 1 0 352 342 339 16 44 27 360 354 358
136 163 157 175 155 182 196 185 190 181 163 238 203 185 188 193 195 180 166 164 186 189 192 190 193 201 203 198 185 179 170 124 147 149 160 156 167 192 177 172 163 135 156 138 152 169 178 169 171 214 278 75 150 141 144 147 174 169 156 187 138 192 103 98 24 13 59 44 31 36 35 16 26 20 11 21 28 38 25 18 20 15 15 22 49 39 38 28 21 21 15 21 2 63 15 345 335
87 145 174 119 260 217 295 188 176 188 165 252 170 201 221 198 188 177 179 188 194 194 186 194 189 202 201 204 195 171 139 148 163 177 177 174 177 194 177 179 186 166 170 159 168 161 169 184 205 200 205 140 158 156 139 124 164 134 121 190 154 88 332 143 166 132 81 58 19 358 11 27 33 26 25 20 25 21 32 39 20 12 24 19 34 29 27 33 24 31 35 64 4 355 359 325 12
100 78 94 172 205 123 234 258 184 189 177 205 167 191 250 121 164 186 195 190 199 202 199 202 194 195 196 200 192 175 160 154 168 178 183 188 185 188 176 179 189 176 170 172 164 170 172 188 197 188 181 168 153 166 157 202 162 84 49 63 46 129 109 85 68 49 69 57 19 334 13 28 29 36 34 38 34 30 37 43 32 30 27 32 53 53 32 27 19 26 38 49 121 41 356 329 3
348 110 128 132 145 228 162 217 193 186 258 74 108 91 333 147 137 191 217 202 195 204 208 223 229 228 215 183 166 175 174 162 165 172 179 180 186 199 188 185 175 177 186 181 180 182 171 186 195 174 170 178 163 102 78 218 38 12 20 3 26 38 42 33 53 24 13 47 22 18 13 30 42 39 26 34 38 34 31 33 36 32 37 26 41 50 41 19 5 10 19 65 68 141 46 322 339
324 261 172 171 169 196 243 66 97 23 328 266 138 39 286 281 190 180 176 163 200 206 194 214 216 216 186 190 183 161 172 168 165 170 177 178 177 193 194 175 179 189 192 193 183 181 168 189 194 163 160 150 144 108 111 55 16 27 357 55 22 46 58 76 120 155 158 124 131 283 35 36 46 45 27 27 28 33 29 24 31 33 26 19 27 34 33 22 18 17 356 31 59 11 148 92 37
75 287 229 319 47 115 183 121 103 37 143 274 105 125 264 321 160 161 179 175 194 243 218 216 216 216 212 208 179 172 162 156 146 154 166 172 179 182 193 185 190 188 206 186 173 175 176 177 193 161 157 164 170 152 79 78 53 26 247 182 168 169 165 254 249 241 167 158 147 72 55 45 45 55 33 28 28 29 38 28 31 29 23 17 20 35 30 14 0 5 360 18 4 358 84 106 139
90 252 296 344 32 5 136 158 170 199 249 307 44 109 137 337 301 192 167 162 186 218 233 234 226 225 225 218 190 173 168 165 159 163 175 182 180 185 186 190 191 194 193 173 178 168 171 184 187 161 155 160 181 174 79 96 145 134 118 138 172 172 170 186 192 200 226 131 100 88 72 50 45 50 48 30 23 27 39 31 25 24 28 18 37 34 29 7 18 12 23 17 16 30 28 87 54
215 239 147 332 286 303 106 115 165 165 102 293 326 29 62 295 291 113 139 134 210 220 224 230 227 228 230 222 205 176 172 170 166 168 174 180 186 190 184 188 200 199 183 180 186 178 174 187 190 153 165 164 189 161 84 124 170 142 152 144 130 224 189 205 192 137 147 99 97 56 74 62 53 44 45 31 15 28 38 46 35 31 29 19 30 26 24 31 41 42 27 27 26 24 19 23 69
281 267 15 29 326 220 234 75 101 2 65 309 272 145 112 286 284 118 90 157 197 218 220 225 221 221 221 222 210 171 162 164 177 180 177 181 188 187 186 180 189 205 195 182 174 155 171 186 190 158 183 180 179 136 115 114 115 120 99 122 141 79 85 117 47 44 48 52 64 68 68 52 31 35 18 19 6 12 31 42 53 39 21 12 25 12 18 25 27 41 38 36 33 48 23 36 53
185 54 4 352 20 360 17 60 79 58 30 257 249 217 124 226 265 183 149 207 200 188 215 246 235 234 231 227 205 177 170 174 175 179 182 187 186 181 166 186 205 205 189 179 174 173 173 179 185 168 204 195 192 152 135 217 118 138 126 135 156 134 101 121 100 85 93 80 89 78 84 71 33 23 11 4 12 8 33 36 70 50 29 16 16 12 7 21 12 30 29 41 39 43 33 36 33
69 53 49 34 336 3 25 346 35 79 280 263 252 185 167 145 295 265 234 267 171 163 189 199 206 210 215 212 205 185 172 177 178 172 179 173 169 190 175 198 205 205 182 188 183 172 171 179 170 177 201 193 200 146 125 54 130 148 121 130 136 181 128 150 140 145 136 120 119 111 96 84 57 19 14 7 356 359 32 31 27 49 36 24 16 346 0 14 28 36 40 51 49 40 39 47 39
33 36 34 78 278 32 353 7 18 115 226 260 308 335 51 189 216 209 230 173 169 179 172 191 192 198 206 208 200 186 173 172 180 183 178 179 186 190 194 205 202 197 191 189 184 178 175 175 170 169 199 204 198 150 145 138 140 168 141 134 148 126 113 133 138 132 143 123 131 122 100 85 7 41 359 9 339 342 23 56 37 39 14 354 6 26 3 17 33 38 42 42 40 39 35 49 50
38 51 80 70 45 32 91 276 232 330 299 271 270 321 109 260 296 224 144 188 186 183 189 182 178 188 197 200 187 180 177 180 185 184 184 187 190 194 197 200 199 196 195 188 184 179 178 176 175 168 204 197 196 164 153 163 190 194 163 150 174 114 141 139 145 138 144 127 128 135 146 159 153 168 1 345 319 315 44 114 152 107 334 348 14 28 30 21 35 48 49 49 42 28 45 43 38
158 182 118 157 147 159 195 247 52 268 230 288 316 61 220 64 257 260 165 178 191 184 166 170 179 183 190 187 172 168 178 188 183 186 191 192 192 191 197 199 200 196 192 189 184 183 175 179 173 182 193 206 187 182 161 181 205 190 183 183 138 102 152 136 151 149 142 137 139 136 153 166 156 213 353 288 355 32 254 136 97 47 12 6 21 38 43 50 44 60 59 58 46 33 51 46 31
278 125 97 55 248 157 81 200 153 241 325 352 344 355 181 130 288 346 178 110 86 110 128 147 161 151 153 164 182 189 191 190 191 192 194 198 195 193 193 199 199 193 191 191 189 184 181 184 183 186 189 191 192 179 178 178 190 176 163 165 136 134 149 139 134 138 142 139 146 143 163 182 203 198 262 18 353 265 211 121 93 80 51 48 48 61 67 64 54 68 58 55 46 11 57 45 23
272 54 347 245 176 108 88 1 352 45 50 293 234 354 328 304 20 20 21 77 114 121 139 156 166 167 168 189 193 194 197 194 194 197 197 197 197 197 197 196 195 187 190 194 193 188 186 184 184 189 190 187 189 185 179 179 180 168 182 181 136 142 148 153 158 160 149 151 147 155 156 189 204 186 163 26 10 299 221 162 110 107 71 58 60 62 72 68 59 57 63 66 61 29 60 50 39
64 47 279 287 37 116 112 161 342 55 103 275 30 24 310 45 144 327 57 91 171 162 168 173 175 172 184 197 196 196 199 200 198 199 197 198 199 199 198 198 195 193 192 195 197 193 189 183 183 184 186 187 196 182 175 175 172 172 180 184 166 163 172 171 168 155 154 144 149 139 143 156 177 220 199 50 4 233 204 241 122 103 66 80 91 72 70 65 71 63 55 47 18 48 58 42 33
119 167 237 79 323 12 324 83 9 352 348 301 335 308 338 25 15 17 141 152 209 200 174 159 179 193 200 197 205 208 206 193 194 198 199 199 200 201 199 201 198 193 193 193 193 189 188 189 187 184 187 190 187 181 175 177 174 169 174 193 185 178 179 183 153 128 131 134 143 162 172 178 162 9 19 28 28 127 65 261 107 69 83 89 82 77 73 61 63 71 53 52 28 46 53 50 26
48 62 24 20 103 117 41 133 179 118 289 46 304 25 333 299 245 202 204 214 201 183 186 199 191 196 196 198 196 195 197 201 201 201 203 203 203 202 201 199 197 194 193 193 188 186 190 189 184 189 186 182 181 178 176 178 185 167 177 191 199 182 177 162 149 140 140 144 158 159 160 137 147 42 357 51 54 122 180 223 75 91 83 84 82 65 72 75 67 65 65 64 53 66 59 52 38
2 39 359 354 17 210 114 27 68 144 164 154 167 1 292 283 247 240 136 173 192 184 194 202 206 204 200 193 186 193 198 202 204 205 204 205 205 206 206 204 205 200 193 187 186 190 193 185 187 184 181 184 184 186 179 183 172 174 168 187 185 176 163 146 136 144 143 151 156 158 166 179 120 63 18 24 80 222 145 122 116 106 108 98 95 80 68 85 75 70 60 71 64 66 68 43 52
136 140 97 175 62 43 59 295 337 59 91 232 94 244 263 278 350 315 341 331 245 206 184 189 206 209 204 195 201 192 194 205 205 207 208 208 209 209 210 205 202 192 191 192 193 190 188 188 189 183 180 184 185 187 185 178 175 167 176 186 182 170 155 147 143 151 147 154 150 163 181 140 123 211 74 44 354 248 111 122 116 109 101 99 88 83 76 84 83 77 64 57 62 67 68 52 52